www.pogodaiklimat.ru
ПОГОДА в Белеме
Время
(UTC), дата
12 10.10
15 10.10
18 10.10
21 10.10
00 11.10
03 11.10
06 11.10
09 11.10
12 11.10
15 11.10
18 11.10
21 11.10
00 12.10
03 12.10
06 12.10
09 12.10
12 12.10
15 12.10
18 12.10
21 12.10
00 13.10
03 13.10
06 13.10
09 13.10
12 13.10
15 13.10
18 13.10
21 13.10
00 14.10
03 14.10
06 14.10
09 14.10
12 14.10
15 14.10
18 14.10
21 14.10
00 15.10
03 15.10
06 15.10
09 15.10
12 15.10
15 15.10
18 15.10
21 15.10
00 16.10
03 16.10
06 16.10
09 16.10
12 16.10
15 16.10
18 16.10
21 16.10
00 17.10
03 17.10
06 17.10
09 17.10
Ветер
(напр.,м/с)
Видим. Явления Облачность Т
(С)
Тd
(С)
f
(%)
Тe
(С)
Тes
(С)
Комфортность P
(гПа)
Po
(гПа)
Тmin
(С)
Tmax
(С)
R
(мм)
R24
(мм)
S
(см)
В 7 20 км 1/1 600 м
[Cu med, cong]
+27.8 +22.6 73 +37 +39 очень
душно
1011.7 1009.7 +23.0
В 5 20 км 3/3 1000 м
[Cu med, cong]
+31.6 +22.5 59 +41 +49 опасность
перегрева
1010.7 1008.7
С 4 20 км 6/6 1000 м
[Cu med, cong]
+30.3 +24.3 70 +42 +46 опасность
перегрева
1008.3 1006.3
В 2 20 км 5/5 1000 м
[Cu med, cong]
+30.9 +21.2 56 +38 +38 очень
душно
1008.6 1006.6
СВ 7 20 км ясно +26.9 +22.4 76 +35 +35 очень
душно
1010.5 1008.5 +32.7
В 5 20 км ясно +25.2 +22.6 86 +33 +33 очень
душно
1010.2 1008.2
В 4 20 км ясно +24.1 +22.6 91 +32 +32 очень
душно
1009.3 1007.3
СВ 2 10 км дымка 6/0
[Cc]
+23.6 +22.4 93 +31 +31 очень
душно
1010.6 1008.6
В 7 10 км мгла 1/1 300 м
[Cu hum]
+28.6 +23.2 73 +39 +41 очень
душно
1012.7 1010.7 +23.6
В 5 15 км мгла 6/6 600 м
[Cu med, cong]
+30.8 +22.1 60 +40 +45 очень
душно
1012.7 1010.7
СЗ 4 8000 м в посл. час дождь 6/6 600 м
[Cu med, cong Ac trans]
+27.9 +24.8 83 +40 +43 очень
душно
1010.3 1008.3 6
СЗ 2 20 км в посл. час гроза {дождь} 8/6 600 м
[Cu med, cong Ac trans]
+25.9 +23.6 87 +35 +35 очень
душно
1010.1 1008.1
СВ 4 9000 м дымка 6/0
[Ci fib]
+25.5 +22.7 85 +34 +34 очень
душно
1011.4 1009.4 +31.6 27
В 4 20 км ясно +24.5 +22.8 90 +32 +32 очень
душно
1012.1 1010.1
В 2 20 км ясно +23.8 +22.4 92 +31 +31 очень
душно
1010.6 1008.6
СВ 1 20 км ясно +23.4 +22.4 94 +32 +32 очень
душно
1011.3 1009.3
СВ 6 20 км 4/4 600 м
[Cu hum]
+28.4 +23.0 73 +38 +41 очень
душно
1013.1 1011.1 +23.3 33
В 5 20 км 6/6 600 м
[Cu med, cong]
+31.0 +22.2 60 +40 +45 очень
душно
1012.2 1010.2
С 6 10 км осадки на расстоянии {ливн. осадки} 8/8 600 м
[Cu med, cong]
+29.9 +24.0 71 +41 +42 опасность
перегрева
1008.9 1006.9
С 4 15 км мгла {дождь} 5/3 1000 м
[Cu med, cong Ci sp]
+28.7 +23.7 74 +39 +39 очень
душно
1008.8 1006.8
СВ 6 15 км мгла {дождь} 1/0
[Ci]
+26.4 +22.5 79 +35 +35 очень
душно
1010.7 1008.7 +31.8
В 2 20 км ясно +24.7 +22.4 87 +32 +32 очень
душно
1010.9 1008.9
В 3 20 км ясно +24.4 +22.5 89 +32 +32 очень
душно
1010.6 1008.6
СВ 2 20 км ясно +23.5 +22.1 92 +30 +30 очень
душно
1009.9 1007.9
В 7 20 км 4/4 600 м
[Cu med, cong]
+28.3 +23.1 73 +38 +40 очень
душно
1011.8 1009.8 +23.5
В 4 20 км 6/6 600 м
[Cu med, cong]
+30.3 +22.6 63 +40 +45 очень
душно
1011.8 1009.8
С 5 4000 м слаб. дождь 8/8 600 м
[Cu med, cong]
+27.4 +25.1 87 +39 +41 очень
душно
1008.8 1006.8 5
С 5 20 км {дождь} 8/5 600 м
[Cu med, cong Ac trans]
+28.4 +24.9 81 +41 +41 опасность
перегрева
1008.9 1006.9
В 2 20 км 6/1 600 м
[Cu med, cong Ci fib]
+25.6 +23.9 90 +35 +35 очень
душно
1011.1 1009.1 +30.8 2
СВ 3 10 км дымка 9/0
[Ci fib]
+24.6 +23.2 92 +33 +33 очень
душно
1010.9 1008.9
В 1 9000 м дымка 3/0
[Ci fib]
+24.0 +22.8 93 +32 +32 очень
душно
1010.0 1008.0
штиль 0 7000 м дымка 5/0
[Ci]
+23.6 +22.6 94 +31 +31 очень
душно
1010.5 1008.5
В 5 20 км 5/5 300 м
[Sc]
+28.0 +23.9 78 +39 +41 очень
душно
1011.9 1009.9 +23.6 7
ЮВ 4 20 км 6/6 600 м
[Cu med, cong]
+30.8 +23.1 64 +41 +47 опасность
перегрева
1011.4 1009.4
20 км н/о +28.6 +24.5 79 +41 +42 опасность
перегрева
1009.3 1007.3
С 2 20 км в посл. час дождь {гроза} 3/3 600 м
[Cu med, cong]
+25.7 +24.2 91 +36 +36 очень
душно
1009.2 1007.2
В 4 20 км {гроза, дождь} 9/8 600 м
[Cu med, cong Ac trans]
+26.2 +23.3 84 +35 +35 очень
душно
1011.7 1009.7 +32.1 4
В 2 9000 м дымка 6/1 600 м
[Cu hum Ac trans]
+25.4 +22.9 86 +34 +34 очень
душно
1012.9 1010.9
СВ 2 20 км ясно +24.6 +22.9 90 +33 +33 очень
душно
1010.6 1008.6
СВ 2 9000 м дымка 5/1 300 м
[Cu hum Ci fib]
+23.7 +22.5 93 +31 +31 очень
душно
1011.5 1009.5
В 4 20 км 4/1 300 м
[Cu hum Ac trans]
+27.2 +23.6 81 +37 +42 очень
душно
1013.4 1011.4 +23.7 4
СВ 5 20 км 4/4 600 м
[Cu med, cong]
+30.8 +22.9 63 +41 +47 опасность
перегрева
1012.8 1010.8
С 7 20 км 8/8 600 м
[Cu med, cong]
+29.5 +24.3 74 +41 +42 опасность
перегрева
1010.5 1008.5
СВ 4 20 км 9/6 300 м
[Cu med, cong Ci fib]
+28.7 +23.0 71 +38 +38 очень
душно
1010.1 1008.1
СВ 4 20 км {дождь} ясно +26.0 +22.6 82 +34 +34 очень
душно
1012.0 1010.0 +30.8 1
В 3 20 км ясно +24.8 +23.3 91 +33 +33 очень
душно
1012.4 1010.4
В 3 20 км ясно +24.5 +22.7 90 +32 +32 очень
душно
1011.6 1009.6
ЮВ 2 20 км ясно +23.8 +23.1 96 +32 +32 очень
душно
1011.5 1009.5
СВ 4 20 км 6/6 300 м
[Cu med, cong]
+27.7 +23.8 79 +38 +41 очень
душно
1012.9 1010.9 +23.8 1
С 5 20 км 6/6 600 м
[Cu med, cong]
+29.7 +24.2 72 +41 +46 опасность
перегрева
1012.4 1010.4
СВ 4 500 м гроза, ливневой дождь 9/9 600 м
[Cb cap]
+27.2 +24.9 87 +39 +40 очень
душно
1010.5 1008.5 20
В 2 3000 м слаб. дождь {гроза} 10/8 600 м
[Cu med, cong As op Ci ing]
+25.3 +23.4 89 +34 +34 очень
душно
1010.9 1008.9
В 1 10 км в посл. час дождь {гроза, ливн. осадки} 10/1 600 м
[Sc Ac und Ci]
+25.4 +24.4 94 +35 +35 очень
душно
1012.4 1010.4 +30.1 11
СВ 3 20 км 4/0
[Ac trans]
+24.6 +23.4 93 +33 +33 очень
душно
1012.6 1010.6
В 1 20 км ясно +23.9 +23.1 95 +32 +32 очень
душно
1011.6 1009.6
В 1 8000 м дымка 5/0
[Cc]
+23.7 +23.0 96 +31 +31 очень
душно
1012.3 1010.3
Местоположение метеостанции Белем (Пара, Бразилия): широта -1.38 долгота -48.48 высота над уровнем моря 16 м.
В архиве по умолчанию представлена погода в Белеме за последнюю неделю. Архивные данные за месяц целиком и за предыдущие месяцы, начиная с января 2011 года, Вы можете получить, выбрав интересующий диапазон дат из раскрывающегося списка и нажав кнопку "Найти!".
*Определитесь, кто Вы:
Внимание! Время в таблицах - всемирное. Для получения местного времени необходимо прибавить поправку, которая равна -3 ч.
Смотрите также архив погоды в соседних городах и на ближайших метеорологических станциях:
Партнеры нашего сайта:      
Пояснения к столбцам:
  • Ветер - указаны скорость ветра в м/с - средняя за 10 мин, порывы в срок и между сроками (в фигурных скобках) и направление, откуда дует ветер: С - северный,
  • СВ - северо-восточный, В - восточный, ЮВ - юго-восточный, Ю - южный, ЮЗ - юго-западный, З - западный, СЗ - северо-западный.
  • Видимость - горизонтальная дальность видимости в метрах или километрах. При видимости от 1 до 10 км при отсутствии осадков обычно наблюдается дымка, при ухудшении видимости до 1 км и менее - туман. В сухую погоду видимость может ухудшаться дымом, пылью или мглою.
  • Явления - указаны атмосферные явления, наблюдавшиеся в срок или в последний час перед сроком; фигурными скобками обозначены явления, наблюдавшиеся между сроками (за 1-3 часа до срока); квадратными скобками обозначены град или гололедные отложения с указанием их диаметра в мм.
  • Облачность - указаны через наклонную черту общая и нижняя облачность в баллах и высота нижней границы облаков в метрах; квадратными скобками обозначены формы облаков: Ci - перистые, Cs - перисто-слоистые, Cc - перисто-кучевые, Ac - высококучевые, As - высокослоистые, Sc - слоисто-кучевые, Ns - слоисто-дождевые, Cu - кучевые, Cb - кучево-дождевые. Подробнее классификацию облаков см. в Атласе облаков (PDF).
  • T - Температура воздуха - температура, измеренная на высоте 2 м над землей.
  • Td - Температура точки росы - температура, при понижении до которой содержащийся в воздухе водяной пар достигнет насыщения.
  • f - Относительная влажность воздуха - влажноcть воздуха, измеренная на высоте 2 м над землей.
  • Te - Эффективная температура - температура, которую ощущает одетый по сезону человек в тени. Характеристика душности погоды. При расчете учитывается влияние влажности воздуха и скорости ветра на теплоощущения человека.
  • Tes - Эффективная температура на солнце - температура, которую ощущает человек, с поправкой на солнечный нагрев. Характеристика знойности погоды. Зависит от высоты солнца над горизонтом, облачности и скорости ветра. Ночью, в пасмурную погоду, а также при ветре 12 м/с и более поправка равна нулю.
  • P - Атмосферное давление - приведенное к уровню моря атмосферное давление.
  • Po - Атмосферное давление - измеренное на уровне метеостанции атмосферное давление.
  • Tmin - Минимальная температура - минимум температуры воздуха на высоте 2 м над землей.
  • Tmax - Максимальная температура - максимум температуры воздуха на высоте 2 м над землей.
  • R - Количество осадков - Количество выпавших осадков за период времени, мм. При наведении курсора мыши на число - период времени, за который выпало указанное количество осадков.
  • R24 - Количество осадков - Количество выпавших осадков за 24 часа, мм.
  • S - Снежный покров - Высота снежного покрова, см. При наведении курсора мыши на число - состояние снежного покрова и степень покрытия местности в баллах.